sat.trackr.live / text

‹ back to catalog

STARLINK-11274 [DTC]

NORAD 61001 · 2024-158M

PAYLOAD ACTIVE UNKNOWN

§ Identity

Operator
Country
US
Launch date
2024-09-05
Launch site
AFETR
Launch vehicle
Mass (kg)
RCS (m²)

Purposes: comms

External: N2YO · Heavens-Above · Gunter

§ Orbital elements

Epoch: 2026-05-24T16:42:23.658624Z

Period
91.74 min
Inclination
53.1599°
Eccentricity
0.0001052
Mean motion
15.69706323 rev/d
Perigee alt
359.0 km
Apogee alt
360.4 km
Semi-major
6,737.9 km
B*
5.7152e-6
RAAN
266.4762°
Arg perigee
72.2142°
Mean anomaly
287.8990°
Rev number
9,952

§ Raw data

STARLINK-11274 [DTC]1 61001U 24158M   26144.69610716  .00000104  00000+0  57152-5 0  99902 61001  53.1599 266.4762 0001052  72.2142 287.8990 15.69706323 99521

JSON: /api/v1/satellites/61001 · /tle

For live sub-satellite position, see the globe view (requires WebGL).

§ Visibility from observer

Set your observer location to see the next 7 days of passes ≥ 10°. The values pass through the URL so the page stays shareable.

No JS? Fill the form by hand. The geolocation button needs JavaScript.